Regional Weather Roundup
Issued by NWS

Home | Current Version | Previous Version | Graphics & Text | Print | Product List | Glossary On
Versions: 1 2 3 4 5 6 7 8 9 10 11 12 13 14 15 16 17 18 19 20 21 22 23 24 25 26 27 28 29 30 31 32 33 34 35 36 37 38 39 40 41 42 43 44 45 46 47 48 49 50
000
ASUS43 KBIS 161220
RWRND

NORTH DAKOTA REGIONAL WEATHER ROUNDUP
NATIONAL WEATHER SERVICE BISMARCK ND
700 AM CDT WED APR 16 2014

NOTE: "FAIR" INDICATES FEW OR NO CLOUDS BELOW 12,000 FEET WITH NO
SIGNIFICANT WEATHER AND/OR OBSTRUCTIONS TO VISIBILITY.


NDZ001>003-009>011-017-161300-
NORTHWEST NORTH DAKOTA

CITY           SKY/WX    TMP DP  RH WIND       PRES   REMARKS
WILLISTON      CLOUDY    25  20  81 E17       29.98R WCI  12
MINOT          LGT SNOW  23  18  81 NE15G22   30.01R WCI  10
MINOT AFB      LGT SNOW  21  21 100 NE14      30.03R WCI   8
$$

NDZ018>021-031>035-040>046-161300-
SOUTHWEST NORTH DAKOTA

CITY           SKY/WX    TMP DP  RH WIND       PRES   REMARKS
BISMARCK       CLOUDY    28  22  78 E14G22    29.90R WCI  17
6HR MIN TEMP:  27; 6HR MAX TEMP:  30;

DICKINSON      PTCLDY    22  17  81 NE13      29.85R WCI  10
GARRISON         N/A     24  20  84 E15G23    29.95R WCI  11
6HR MIN TEMP:  24; 6HR MAX TEMP:  28;

HETTINGER ARPT MOCLDY    24  16  71 NE10      29.82R WCI  14
$$

NDZ004>008-012>016-024-026-027-054-161300-
NORTHEAST NORTH DAKOTA

CITY           SKY/WX    TMP DP  RH WIND       PRES   REMARKS
GRAND FORKS    CLOUDY    28  12  51 E13       30.02R WCI  17
GRND FRKS AFB  CLOUDY    27  13  55 E10       30.07R WCI  17
DEVILS LAKE    CLOUDY    25  12  58 E16       30.03R WCI  12
$$

NDZ022-023-025-028>030-036>039-047>053-161300-
SOUTHEAST NORTH DAKOTA

CITY           SKY/WX    TMP DP  RH WIND       PRES   REMARKS
FARGO          LGT SNOW  28  23  81 E15       29.98S WCI  16
6HR MIN TEMP:  28; 6HR MAX TEMP:  32; 6HR PCP:  0.10;

JAMESTOWN      CLOUDY    26  24  92 E20G28    29.92R WCI  12
$$




USA.gov is the U.S. government's official web portal to all federal, state and local government web resources and services.